STARLING 1

Satellite information

Favourite Embed

Satellite Type and Status

PAYLOADIN ORBIT

Key statistics

Satellite STARLING 1 at a glance.

Uptime

880

Days in orbit

Revolutions

≈ 15.1

Per day

Orbit

SSO

Sun Synchronous Orbit

Inclination

99.5

Latest

Satellite identification and parameters

Extended collection of information and parameters for STARLING 1.

Object identification

Identified? True

Debris? False

Object name: STARLING 1

International designator: 2023-100C

Object number (NORAD): 57388

Object ID (CCSDS): 57388

Country: UNITED STATES OF AMERICA (US)

Current information (Y/N): Y

RCS size: MEDIUM

Orbital parameters

Period: 95.651 minutes

Inclination: 99.5058 deg

SMA: 6928.175 km

Apoapsis: 554.121 km

Periapsis: 545.958 km

RAAN: 316.2344 deg

Eccentricy: 0.00058912

Argument of periapsis: 149.7558 deg

Mean anomaly: 210.4004 deg

Mean motion: 15.05478354 rev/day

Mean motion (dot): 0.000042 rev/day2

B* drag term: 0.00029820482 1/REarth

Two-line elements (TLE)

Creation date: Dec. 12, 2025, 10:14 a.m.

Reference frame: TEME

Reference center: EARTH

Epoch: Dec. 12, 2025, 7:21 a.m. UTC

TLE line 0: 0 STARLING 1

TLE line 1: 1 57388U 23100C 25346.30629838 .00004200 00000-0 29820-3 0 9996

TLE line 2: 2 57388 99.5058 316.2344 0005891 149.7558 210.4004 15.05478354131776

Live tracking on map

Real-time ground track for satellite STARLING 1.

In-orbit conjunctions

There are no conjunctions computed for STARLING 1, at the moment. Check back to stay up to date, as we update our databases every day.

Go to all conjunctions

Associated space launch

The "Baby Come Back" mission includes NASA's Starling project, which consists of four CubeSats designed to test technologies for future swarm missions. Telesat contributes the LEO 3 demonstration satellite, ensuring continuity for customers and ecosystem vendor testing. Additionally, two 3U satellites carrying GNSS-RO payloads from SpinGlobal will replenish their constellation of over 100 multipurpose satellites.

STARLING 1 was lifted into orbit during the mission ‘Electron | Baby Come Back (Rideshare)’, on board a Electron space rocket.

The launch took place on July 18, 2023, 1:27 a.m. from Rocket Lab Launch Complex 1B.

For more information about the launch, click the button.

Launch to space Electron | Baby Come Back (Rideshare)
Electron | Baby Come Back (Rideshare)

Agency: N/A

Status: Launch Successful

Launch date: July 18, 2023, 1:27 a.m. UTC

Rocket: Electron

Launch pad: Rocket Lab Launch Complex 1B

Location: Rocket Lab Launch Complex 1, Mahia Peninsula, New Zealand

...

Latest news about this satellite

News about space launch
Making multiple breakthroughs in spacecraft swarms

Each year, SpaceNews selects the people, programs and technologies that have most influenced the direction of the space industry in the past year. Started in 2017, our annual celebration recognizes outsized achievements in a business in which no ambition ...

News about space launch
NASA boosts science objectives for Starling swarm

NASA is expanding testing of distributed autonomy for its first satellite swarm, Starling. The post NASA boosts science objectives for Starling swarm appeared first on SpaceNews.

News about space launch
Launch Roundup: Rocket Lab conducts Electron reuse attempt, SpaceX flies two Starlink v2 missions

The week of July 16 through July 23 saw four more launches take place around the world, potentially increasing the orbital launch count to 108 so far in 2023. This included Rocket Lab’s launch of the “Baby Come Back” mission (which featured a first stage ...


Newsletter sign-up

Weekly statistics, charts and insights to help you stay on top of the space industry.